Time,TemperatureF,DewpointF,PressureIn,WindDirection,WindDirectionDegrees,WindSpeedMPH,WindSpeedGustMPH,Humidity,HourlyPrecipIn,Conditions,Clouds,dailyrainin,SolarRadiationWatts/m^2,SoftwareType,DateUTC
2013-04-14 00:03:00,35.0,35.0,-100.00,East,94,3.0,4.0,100,0.03,,,0.34,0.000000,,2013-04-14 04:03:00,
2013-04-14 00:10:00,34.0,34.0,-100.00,East,98,0.0,2.0,100,0.00,,,0.34,0.000000,,2013-04-14 04:10:00,
2013-04-14 00:33:00,34.0,34.0,-100.00,East,98,0.0,2.0,100,0.00,,,0.34,0.000000,,2013-04-14 04:33:00,
2013-04-14 00:43:00,34.0,34.0,-100.00,East,98,0.0,2.0,100,0.00,,,0.34,0.000000,,2013-04-14 04:43:00,
2013-04-14 00:53:00,34.0,34.0,-100.00,East,98,0.0,2.0,100,0.00,,,0.34,0.000000,,2013-04-14 04:53:00,
2013-04-14 01:03:00,34.0,34.0,-100.00,East,98,0.0,2.0,100,0.00,,,0.34,0.000000,,2013-04-14 05:03:00,
2013-04-14 01:10:00,33.0,33.0,-100.00,WSW,253,2.0,3.0,100,0.00,,,0.34,0.000000,,2013-04-14 05:10:00,
2013-04-14 01:32:00,33.0,33.0,-100.00,WSW,253,2.0,3.0,100,0.00,,,0.34,0.000000,,2013-04-14 05:32:00,
2013-04-14 01:43:00,33.0,33.0,-100.00,WSW,253,2.0,3.0,100,0.00,,,0.34,0.000000,,2013-04-14 05:43:00,
2013-04-14 01:53:00,33.0,33.0,-100.00,WSW,253,2.0,3.0,100,0.00,,,0.34,0.000000,,2013-04-14 05:53:00,
2013-04-14 02:02:00,33.0,33.0,-100.00,WSW,253,2.0,3.0,100,0.00,,,0.34,0.000000,,2013-04-14 06:02:00,
2013-04-14 02:10:00,32.0,32.0,-100.00,ESE,121,0.0,2.0,100,0.00,,,0.34,0.000000,,2013-04-14 06:10:00,
2013-04-14 02:32:00,32.0,32.0,-100.00,ESE,121,0.0,2.0,100,0.00,,,0.34,0.000000,,2013-04-14 06:32:00,
2013-04-14 02:42:00,32.0,32.0,-100.00,ESE,121,0.0,2.0,100,0.00,,,0.34,0.000000,,2013-04-14 06:42:00,
2013-04-14 02:53:00,32.0,32.0,-100.00,ESE,121,0.0,2.0,100,0.00,,,0.34,0.000000,,2013-04-14 06:53:00,
2013-04-14 03:03:00,32.0,32.0,-100.00,ESE,121,0.0,2.0,100,0.00,,,0.34,0.000000,,2013-04-14 07:03:00,
2013-04-14 03:10:00,32.0,32.0,-100.00,ESE,111,1.0,2.0,100,0.00,,,0.34,0.000000,,2013-04-14 07:10:00,
2013-04-14 03:33:00,32.0,32.0,-100.00,ESE,111,1.0,2.0,100,0.00,,,0.34,0.000000,,2013-04-14 07:33:00,
2013-04-14 03:42:00,32.0,32.0,-100.00,ESE,111,1.0,2.0,100,0.00,,,0.34,0.000000,,2013-04-14 07:42:00,
2013-04-14 03:52:00,32.0,32.0,-100.00,ESE,111,1.0,2.0,100,0.00,,,0.34,0.000000,,2013-04-14 07:52:00,
2013-04-14 04:03:00,32.0,32.0,-100.00,ESE,111,1.0,2.0,100,0.00,,,0.34,0.000000,,2013-04-14 08:03:00,
2013-04-14 04:10:00,31.0,31.0,-100.00,ESE,104,0.0,2.0,100,0.00,,,0.34,0.000000,,2013-04-14 08:10:00,
2013-04-14 04:43:00,31.0,31.0,-100.00,ESE,104,0.0,2.0,100,0.00,,,0.34,0.000000,,2013-04-14 08:43:00,
2013-04-14 04:52:00,31.0,31.0,-100.00,ESE,104,0.0,2.0,100,0.00,,,0.34,0.000000,,2013-04-14 08:52:00,
2013-04-14 05:03:00,31.0,31.0,-100.00,ESE,104,0.0,2.0,100,0.00,,,0.34,0.000000,,2013-04-14 09:03:00,
2013-04-14 05:10:00,32.0,32.0,-100.00,East,101,1.0,2.0,100,0.00,,,0.34,0.000000,,2013-04-14 09:10:00,
2013-04-14 05:43:00,32.0,32.0,-100.00,East,101,1.0,2.0,100,0.00,,,0.34,0.000000,,2013-04-14 09:43:00,
2013-04-14 05:54:00,32.0,32.0,-100.00,East,101,1.0,2.0,100,0.00,,,0.34,0.000000,,2013-04-14 09:54:00,
2013-04-14 06:03:00,32.0,32.0,-100.00,East,101,1.0,2.0,100,0.00,,,0.34,0.000000,,2013-04-14 10:03:00,
2013-04-14 06:10:00,32.0,32.0,-100.00,SW,220,1.0,2.0,100,0.00,,,0.34,0.000000,,2013-04-14 10:10:00,
2013-04-14 06:33:00,32.0,32.0,-100.00,SW,220,1.0,2.0,100,0.00,,,0.34,0.000000,,2013-04-14 10:33:00,
2013-04-14 06:43:00,32.0,32.0,-100.00,SW,220,1.0,2.0,100,0.00,,,0.34,0.000000,,2013-04-14 10:43:00,
2013-04-14 06:53:00,32.0,32.0,-100.00,SW,220,1.0,2.0,100,0.00,,,0.34,0.000000,,2013-04-14 10:53:00,
2013-04-14 07:02:00,32.0,32.0,-100.00,SW,220,1.0,2.0,100,0.00,,,0.34,0.000000,,2013-04-14 11:02:00,
2013-04-14 07:10:00,33.0,33.0,-100.00,SSE,159,1.0,2.0,100,0.01,,,0.35,9.000000,,2013-04-14 11:10:00,
2013-04-14 07:33:00,33.0,33.0,-100.00,SSE,159,1.0,2.0,100,0.01,,,0.35,9.000000,,2013-04-14 11:33:00,
2013-04-14 07:42:00,33.0,33.0,-100.00,SSE,159,1.0,2.0,100,0.01,,,0.35,9.000000,,2013-04-14 11:42:00,
2013-04-14 07:53:00,33.0,33.0,-100.00,SSE,159,1.0,2.0,100,0.01,,,0.35,9.000000,,2013-04-14 11:53:00,
2013-04-14 08:02:00,33.0,33.0,-100.00,SSE,159,1.0,2.0,100,0.01,,,0.35,9.000000,,2013-04-14 12:02:00,
2013-04-14 08:10:00,34.0,34.0,-100.00,ESE,104,0.0,2.0,100,0.02,,,0.37,31.000000,,2013-04-14 12:10:00,
2013-04-14 08:42:00,34.0,34.0,-100.00,ESE,104,0.0,2.0,100,0.02,,,0.37,31.000000,,2013-04-14 12:42:00,
2013-04-14 08:52:00,34.0,34.0,-100.00,ESE,104,0.0,2.0,100,0.02,,,0.37,31.000000,,2013-04-14 12:52:00,
2013-04-14 09:02:00,34.0,34.0,-100.00,ESE,104,0.0,2.0,100,0.02,,,0.37,31.000000,,2013-04-14 13:02:00,
2013-04-14 09:10:00,37.0,37.0,-100.00,East,93,2.0,3.0,100,0.02,,,0.39,92.000000,,2013-04-14 13:10:00,
2013-04-14 09:33:00,37.0,37.0,-100.00,East,93,2.0,3.0,100,0.02,,,0.39,92.000000,,2013-04-14 13:33:00,
2013-04-14 09:43:00,37.0,37.0,-100.00,East,93,2.0,3.0,100,0.02,,,0.39,92.000000,,2013-04-14 13:43:00,
2013-04-14 09:52:00,37.0,37.0,-100.00,East,93,2.0,3.0,100,0.02,,,0.39,92.000000,,2013-04-14 13:52:00,
2013-04-14 10:02:00,37.0,37.0,-100.00,East,93,2.0,3.0,100,0.02,,,0.39,92.000000,,2013-04-14 14:02:00,
2013-04-14 10:10:00,37.0,37.0,-100.00,ESE,123,1.0,3.0,100,0.01,,,0.39,85.000000,,2013-04-14 14:10:00,
2013-04-14 10:42:00,37.0,37.0,-100.00,ESE,123,1.0,3.0,100,0.01,,,0.39,85.000000,,2013-04-14 14:42:00,
2013-04-14 10:53:00,37.0,37.0,-100.00,ESE,123,1.0,3.0,100,0.01,,,0.39,85.000000,,2013-04-14 14:53:00,
2013-04-14 11:03:00,37.0,37.0,-100.00,ESE,123,1.0,3.0,100,0.01,,,0.39,85.000000,,2013-04-14 15:03:00,
2013-04-14 11:10:00,43.0,41.0,-100.00,SW,228,2.0,4.0,94,0.02,,,0.39,323.000000,,2013-04-14 15:10:00,
2013-04-14 11:34:00,43.0,41.0,-100.00,SW,228,2.0,4.0,94,0.02,,,0.39,323.000000,,2013-04-14 15:34:00,
2013-04-14 11:44:00,43.0,41.0,-100.00,SW,228,2.0,4.0,94,0.02,,,0.39,323.000000,,2013-04-14 15:44:00,
2013-04-14 11:53:00,43.0,41.0,-100.00,SW,228,2.0,4.0,94,0.02,,,0.39,323.000000,,2013-04-14 15:53:00,
2013-04-14 12:05:00,43.0,41.0,-100.00,SW,228,2.0,4.0,94,0.02,,,0.39,323.000000,,2013-04-14 16:05:00,
2013-04-14 12:10:00,43.0,37.0,-100.00,West,266,6.0,11.0,79,0.00,,,0.36,389.000000,,2013-04-14 16:10:00,
2013-04-14 12:33:00,43.0,37.0,-100.00,West,266,6.0,11.0,79,0.00,,,0.36,389.000000,,2013-04-14 16:33:00,
2013-04-14 12:43:00,43.0,37.0,-100.00,West,266,6.0,11.0,79,0.00,,,0.36,389.000000,,2013-04-14 16:43:00,
2013-04-14 12:53:00,43.0,37.0,-100.00,West,266,6.0,11.0,79,0.00,,,0.36,389.000000,,2013-04-14 16:53:00,
2013-04-14 13:02:00,43.0,37.0,-100.00,West,266,6.0,11.0,79,0.00,,,0.36,389.000000,,2013-04-14 17:02:00,
2013-04-14 13:10:00,46.0,32.0,-100.00,West,279,3.0,14.0,57,0.00,,,0.28,414.000000,,2013-04-14 17:10:00,
2013-04-14 13:43:00,46.0,32.0,-100.00,West,279,3.0,14.0,57,0.00,,,0.28,414.000000,,2013-04-14 17:43:00,
2013-04-14 13:53:00,46.0,32.0,-100.00,West,279,3.0,14.0,57,0.00,,,0.28,414.000000,,2013-04-14 17:53:00,
2013-04-14 14:03:00,46.0,32.0,-100.00,West,279,3.0,14.0,57,0.00,,,0.28,414.000000,,2013-04-14 18:03:00,
2013-04-14 14:10:00,51.0,34.0,-100.00,NNW,332,3.0,11.0,51,0.00,,,0.17,442.000000,,2013-04-14 18:10:00,
2013-04-14 14:33:00,51.0,34.0,-100.00,NNW,332,3.0,11.0,51,0.00,,,0.17,442.000000,,2013-04-14 18:33:00,
2013-04-14 14:43:00,51.0,34.0,-100.00,NNW,332,3.0,11.0,51,0.00,,,0.17,442.000000,,2013-04-14 18:43:00,
2013-04-14 14:54:00,51.0,34.0,-100.00,NNW,332,3.0,11.0,51,0.00,,,0.17,442.000000,,2013-04-14 18:54:00,
2013-04-14 15:04:00,51.0,34.0,-100.00,NNW,332,3.0,11.0,51,0.00,,,0.17,442.000000,,2013-04-14 19:04:00,
2013-04-14 15:10:00,52.0,32.0,-100.00,West,267,3.0,11.0,46,0.00,,,0.14,499.000000,,2013-04-14 19:10:00,
2013-04-14 15:33:00,52.0,32.0,-100.00,West,267,3.0,11.0,46,0.00,,,0.14,499.000000,,2013-04-14 19:33:00,
2013-04-14 15:43:00,52.0,32.0,-100.00,West,267,3.0,11.0,46,0.00,,,0.14,499.000000,,2013-04-14 19:43:00,
2013-04-14 15:53:00,52.0,32.0,-100.00,West,267,3.0,11.0,46,0.00,,,0.14,499.000000,,2013-04-14 19:53:00,
2013-04-14 16:03:00,52.0,32.0,-100.00,West,267,3.0,11.0,46,0.00,,,0.14,499.000000,,2013-04-14 20:03:00,
2013-04-14 16:10:00,45.0,29.0,-100.00,NNW,328,3.0,11.0,53,0.00,,,0.14,140.000000,,2013-04-14 20:10:00,
2013-04-14 16:43:00,45.0,29.0,-100.00,NNW,328,3.0,11.0,53,0.00,,,0.14,140.000000,,2013-04-14 20:43:00,
2013-04-14 16:53:00,45.0,29.0,-100.00,NNW,328,3.0,11.0,53,0.00,,,0.14,140.000000,,2013-04-14 20:53:00,
2013-04-14 17:02:00,45.0,29.0,-100.00,NNW,328,3.0,11.0,53,0.00,,,0.14,140.000000,,2013-04-14 21:02:00,
2013-04-14 17:10:00,44.0,30.0,-100.00,West,278,3.0,7.0,57,0.00,,,0.14,126.000000,,2013-04-14 21:10:00,
2013-04-14 17:43:00,44.0,30.0,-100.00,West,278,3.0,7.0,57,0.00,,,0.14,126.000000,,2013-04-14 21:43:00,
2013-04-14 17:54:00,44.0,30.0,-100.00,West,278,3.0,7.0,57,0.00,,,0.14,126.000000,,2013-04-14 21:54:00,
2013-04-14 18:03:00,44.0,30.0,-100.00,West,278,3.0,7.0,57,0.00,,,0.14,126.000000,,2013-04-14 22:03:00,
2013-04-14 18:10:00,43.0,27.0,-100.00,West,271,4.0,11.0,53,0.00,,,0.14,109.000000,,2013-04-14 22:10:00,
2013-04-14 18:44:00,43.0,27.0,-100.00,West,271,4.0,11.0,53,0.00,,,0.14,109.000000,,2013-04-14 22:44:00,
2013-04-14 18:53:00,43.0,27.0,-100.00,West,271,4.0,11.0,53,0.00,,,0.14,109.000000,,2013-04-14 22:53:00,
2013-04-14 19:02:00,43.0,27.0,-100.00,West,271,4.0,11.0,53,0.00,,,0.14,109.000000,,2013-04-14 23:02:00,
2013-04-14 19:10:00,39.0,32.0,-100.00,East,80,1.0,7.0,77,0.00,,,0.14,46.000000,,2013-04-14 23:10:00,
2013-04-14 19:33:00,39.0,32.0,-100.00,East,80,1.0,7.0,77,0.00,,,0.14,46.000000,,2013-04-14 23:33:00,
2013-04-14 19:43:00,39.0,32.0,-100.00,East,80,1.0,7.0,77,0.00,,,0.14,46.000000,,2013-04-14 23:43:00,
2013-04-14 19:53:00,39.0,32.0,-100.00,East,80,1.0,7.0,77,0.00,,,0.14,46.000000,,2013-04-14 23:53:00,
2013-04-14 20:02:00,39.0,32.0,-100.00,East,80,1.0,7.0,77,0.00,,,0.14,46.000000,,2013-04-15 00:02:00,
2013-04-14 20:10:00,34.0,30.0,-100.00,ENE,62,1.0,3.0,85,0.00,,,-99.99,3.000000,,2013-04-15 00:10:00,
2013-04-14 20:33:00,34.0,30.0,-100.00,ENE,62,1.0,3.0,85,0.00,,,-99.99,3.000000,,2013-04-15 00:33:00,
2013-04-14 20:43:00,34.0,30.0,-100.00,ENE,62,1.0,3.0,85,0.00,,,-99.99,3.000000,,2013-04-15 00:43:00,
2013-04-14 20:53:00,34.0,30.0,-100.00,ENE,62,1.0,3.0,85,0.00,,,-99.99,3.000000,,2013-04-15 00:53:00,
2013-04-14 21:03:00,34.0,30.0,-100.00,ENE,62,1.0,3.0,85,0.00,,,-99.99,3.000000,,2013-04-15 01:03:00,
2013-04-14 21:10:00,33.0,30.0,-100.00,East,100,1.0,3.0,89,0.00,,,0.12,0.000000,,2013-04-15 01:10:00,
2013-04-14 21:43:00,33.0,30.0,-100.00,East,100,1.0,3.0,89,0.00,,,0.12,0.000000,,2013-04-15 01:43:00,
2013-04-14 21:52:00,33.0,30.0,-100.00,East,100,1.0,3.0,89,0.00,,,0.12,0.000000,,2013-04-15 01:52:00,
2013-04-14 22:03:00,33.0,30.0,-100.00,East,100,1.0,3.0,89,0.00,,,0.12,0.000000,,2013-04-15 02:03:00,
2013-04-14 22:10:00,33.0,30.0,-100.00,West,281,1.0,2.0,89,0.00,,,0.11,0.000000,,2013-04-15 02:10:00,
2013-04-14 22:32:00,33.0,30.0,-100.00,West,281,1.0,2.0,89,0.00,,,0.11,0.000000,,2013-04-15 02:32:00,
2013-04-14 22:42:00,33.0,30.0,-100.00,West,281,1.0,2.0,89,0.00,,,0.11,0.000000,,2013-04-15 02:42:00,
2013-04-14 22:53:00,33.0,30.0,-100.00,West,281,1.0,2.0,89,0.00,,,0.11,0.000000,,2013-04-15 02:53:00,
2013-04-14 23:03:00,33.0,30.0,-100.00,West,281,1.0,2.0,89,0.00,,,0.11,0.000000,,2013-04-15 03:03:00,
2013-04-14 23:10:00,30.0,27.0,-100.00,East,91,1.0,3.0,90,0.00,,,0.08,0.000000,,2013-04-15 03:10:00,
2013-04-14 23:43:00,30.0,27.0,-100.00,East,91,1.0,3.0,90,0.00,,,0.08,0.000000,,2013-04-15 03:43:00,
2013-04-14 23:55:00,30.0,27.0,-100.00,East,91,1.0,3.0,90,0.00,,,0.08,0.000000,,2013-04-15 03:55:00,